This is the latest recevied weather packets stored in our database for station/object F6ANO-13. If no packets are shown the sender has not sent any weather packets the latest 10 day(s).
| Time | Temp. | Humidity | Pressure | Rain* | Wind** | Luminosity | Snow |
|---|---|---|---|---|---|---|---|
| 1788087996 | 22.22° C | 73% | 1015.3 hPa | 0 mm | - | - | - |
| 1788087576 | 22.22° C | 74% | 1015.3 hPa | 0 mm | - | - | - |
| 1788087156 | 22.22° C | 76% | 1015.3 hPa | 0 mm | - | - | - |
| 1788086738 | 21.67° C | 78% | 1015.6 hPa | 0 mm | - | - | - |
| 1788086317 | 21.67° C | 79% | 1015.6 hPa | 0 mm | - | - | - |
| 1788085897 | 21.11° C | 78% | 1015.6 hPa | 0 mm | - | - | - |
| 1788085477 | 21.67° C | 79% | 1015.7 hPa | 0 mm | - | - | - |
| 1788085057 | 21.67° C | 79% | 1015.7 hPa | 0 mm | - | - | - |
| 1788084637 | 21.67° C | 81% | 1015.7 hPa | 0 mm | - | - | - |
| 1788084217 | 21.11° C | 82% | 1015.8 hPa | 0 mm | - | - | - |
| 1788083796 | 20.56° C | 86% | 1015.8 hPa | 0 mm | - | - | - |
| 1788083376 | 20° C | 88% | 1016.1 hPa | 0 mm | - | - | - |
| 1788082956 | 20° C | 89% | 1016 hPa | 0 mm | - | - | - |
| 1788082537 | 19.44° C | 88% | 1016.2 hPa | 0 mm | - | - | - |
| 1788082117 | 19.44° C | 88% | 1016.1 hPa | 0 mm | - | - | - |
| 1788081697 | 19.44° C | 89% | 1016.1 hPa | 0 mm | - | - | - |
| 1788081276 | 19.44° C | 87% | 1016.1 hPa | 0 mm | - | - | - |
| 1788080855 | 19.44° C | 88% | 1016.1 hPa | 0 mm | - | - | - |
| 1788080435 | 19.44° C | 88% | 1016.2 hPa | 0 mm | - | - | - |
| 1788080017 | 19.44° C | 88% | 1016.3 hPa | 0 mm | - | - | - |
| 1788079597 | 19.44° C | 90% | 1016.1 hPa | 0 mm | - | - | - |
| 1788079177 | 18.89° C | 91% | 1016.1 hPa | 0 mm | - | - | - |
| 1788078756 | 18.89° C | 93% | 1016.1 hPa | 0 mm | - | - | - |
| 1788078336 | 18.33° C | 92% | 1016.1 hPa | 0 mm | - | - | - |
| 1788077916 | 18.33° C | 92% | 1016 hPa | 0 mm | - | - | - |
* Rain latest hour (hover to see other rain measurements)
** Current wind speed in m/s (hover to see current wind gust speed)